User: anonymous   Login
Location: Unspecified
(0.0000°N, 0.0000°E)
Time: 20:46:53
(UTC+00:00)
Language:

BIRD - Orbit

View from above orbital plane
View from above orbital plane
View from above satellite
View from above satellite

Ground track
Ground track

The orbit data is extracted from the following two-line orbital elements,

1 26959U 01049C   18140.97229426  .00001188  00000-0  36754-4 0  9997
2 26959  97.8341 112.9121 0006923 265.7863  94.2588 15.35737408918141
Epoch (UTC): 20 May 2018 23:20:06
Eccentricity: 0.0006923
inclination: 97.8341°
perigee height: 454 km
apogee height: 463 km
right ascension of ascending node: 112.9121°
argument of perigee: 265.7863°
revolutions per day: 15.35737408
mean anomaly at epoch: 94.2588°
orbit number at epoch: 91814

The dashed part of the orbit path shows where the satellite is in the earth's shadow,  

DLR